SL-3 DEB

Satellite information

Favourite Embed

Satellite Type and Status

DEBRISIN ORBIT

Key statistics

Satellite SL-3 DEB at a glance.

Uptime

16189

Days in orbit

Revolutions

≈ 14.1

Per day

Orbit

LEO

Low Earth Orbit

Inclination

81.3

Latest

Satellite identification and parameters

Extended collection of information and parameters for SL-3 DEB.

Object identification

Identified? True

Debris? True

Object name: SL-3 DEB

International designator: 1981-043D

Object number (NORAD): 25255

Object ID (CCSDS): 25255

Country: COMMONWEALTH OF INDEPENDENT STATES (CIS)

Current information (Y/N): Y

RCS size: SMALL

Orbital parameters

Period: 102.23 minutes

Inclination: 81.2941 deg

SMA: 7242.329 km

Apoapsis: 896.649 km

Periapsis: 831.739 km

RAAN: 92.205 deg

Eccentricy: 0.00448131

Argument of periapsis: 305.5273 deg

Mean anomaly: 108.9895 deg

Mean motion: 14.08592514 rev/day

Mean motion (dot): 0.00000031 rev/day2

B* drag term: 0.000010898205 1/REarth

Two-line elements (TLE)

Creation date: Sept. 8, 2025, 6:18 p.m.

Reference frame: TEME

Reference center: EARTH

Epoch: Sept. 8, 2025, 6:51 a.m. UTC

TLE line 0: 0 SL-3 DEB

TLE line 1: 1 25255U 81043D 25251.28590824 .00000031 00000-0 10898-4 0 9992

TLE line 2: 2 25255 81.2941 92.2050 0044813 305.5273 108.9895 14.08592514482305

Live tracking on map

Real-time ground track for satellite SL-3 DEB.

In-orbit conjunctions

A list of the most updated potential collisions computed for object SL-3 DEB.

Target Orbit TCA Probability of collision Miss distance Type
SL-16 DEB LEO 2025-04-28 09:15:59 0.0001106757 683.0 (m) DEBRIS
NOAA 16 DEB SSO 2024-11-09 09:33:59 0.0003493078 255.0 (m) DEBRIS

Associated space launch

Second generation soviet meteorological satellite

SL-3 DEB was lifted into orbit during the mission ‘Vostok 8A92M | Meteor-2 7’, on board a Vostok 8A92M space rocket.

The launch took place on May 14, 1981, 9:45 p.m. from 43/3 (43L).

For more information about the launch, click the button.

Launch to space Vostok 8A92M | Meteor-2 7
Vostok 8A92M | Meteor-2 7

Agency: N/A

Status: Launch Successful

Launch date: May 14, 1981, 9:45 p.m. UTC

Rocket: Vostok 8A92M

Launch pad: 43/3 (43L)

Location: Plesetsk Cosmodrome, Russian Federation

...

Latest news about this satellite

There are no fresh news available about this satellite. Check back as we update our databases every day.


Newsletter sign-up

Weekly statistics, charts and insights to help you stay on top of the space industry.